Blytheville Muni Airport, AR

5:32 PM CST on February 22, 2018 (GMT -0600)
Blytheville Municipal

Weather History for KHKA - December, 2012

Change the Weather History Date:

Wednesday, December 12, 2012

  Actual Average Record
Temperature  
Mean Temperature 36 °F -  
Max Temperature 48 °F 50 °F 75 °F (1931)
Min Temperature 24 °F 34 °F 2 °F (1962)
Degree Days  
Heating Degree Days 29    
Moisture  
Dew Point 26 °F    
Average Humidity 73    
Maximum Humidity 93    
Minimum Humidity 36    
Precipitation  
Precipitation 0.00 in - - ()
Sea Level Pressure  
Sea Level Pressure 30.34 in    
Wind  
Wind Speed 1 mph (ENE)    
Max Wind Speed 7 mph    
Max Gust Speed -    
Visibility 9 miles    
Events      
Averages and records for this station are not official NWS values.
T = Trace of Precipitation, MM = Missing Value Source: NWS Daily Summary

Daily Weather History Graph

Daily Weather History Graph

Search for Another Location

Airport or City:

Trip Planner

Search our weather history database for the weather conditions in past years. The results will help you decide how hot, cold, wet, or windy it might be!

Date:

Astronomy

Dec. 12, 2012 Rise Set
Actual Time 7:00 AM CST 4:45 PM CST
Civil Twilight 6:32 AM CST 5:14 PM CST
Nautical Twilight 6:00 AM CST 5:46 PM CST
Astronomical Twilight 5:29 AM CST 6:17 PM CST
Moon 6:05 AM CST (12/12) 4:22 PM CST (12/12)
Length of Visible Light 10h 42m
Length of Day
9h 45m
Waning Crescent, 1% of the Moon is Illuminated
Dec 12
Waning Crescent
Dec 13
New
Dec 19
First Quarter
Dec 28
Full
Jan 4
Last Quarter

Hourly Weather History & Observations

Time (CST) Temp. Windchill Dew Point Humidity Pressure Visibility Wind Dir Wind Speed Gust Speed Precip Events Conditions
12:53 AM 30.0 °F - 25.0 °F 82% 30.29 in 10.0 mi Calm Calm - N/A   Clear
1:53 AM 30.0 °F - 25.0 °F 82% 30.29 in 10.0 mi Calm Calm - N/A   Clear
2:53 AM 28.9 °F - 25.0 °F 85% 30.30 in 10.0 mi Calm Calm - N/A   Clear
3:53 AM 28.9 °F - 25.0 °F 85% 30.30 in 10.0 mi Calm Calm - N/A   Clear
4:53 AM 28.0 °F - 25.0 °F 88% 30.30 in 9.0 mi Calm Calm - N/A   Clear
5:26 AM 26.6 °F - 23.0 °F 86% 30.31 in 6.0 mi Calm Calm - N/A   Partly Cloudy
5:53 AM 27.0 °F - 24.1 °F 89% 30.32 in 9.0 mi Calm Calm - N/A   Clear
6:53 AM 27.0 °F - 24.1 °F 89% 30.35 in 4.0 mi Calm Calm - N/A   Clear
7:09 AM 24.8 °F - 23.0 °F 93% 30.34 in 2.5 mi Calm Calm - N/A   Clear
7:17 AM 26.6 °F - 24.8 °F 93% 30.34 in 6.0 mi Calm Calm - N/A   Clear
7:53 AM 30.0 °F - 28.0 °F 92% 30.36 in 8.0 mi Calm Calm - N/A   Clear
8:53 AM 35.1 °F 32.2 °F 30.0 °F 82% 30.39 in 10.0 mi SE 3.5 mph - N/A   Clear
9:53 AM 39.0 °F 34.8 °F 28.9 °F 67% 30.40 in 10.0 mi East 5.8 mph - N/A   Clear
10:53 AM 43.0 °F - 27.0 °F 53% 30.39 in 10.0 mi Calm Calm - N/A   Clear
11:53 AM 46.0 °F 44.8 °F 25.0 °F 44% 30.38 in 10.0 mi North 3.5 mph - N/A   Clear
12:53 PM 46.9 °F - 24.1 °F 41% 30.35 in 10.0 mi NE 3.5 mph - N/A   Clear
1:53 PM 46.9 °F - 23.0 °F 39% 30.33 in 10.0 mi ESE 3.5 mph - N/A   Clear
2:53 PM 48.9 °F - 23.0 °F 36% 30.33 in 10.0 mi ENE 3.5 mph - N/A   Clear
3:53 PM 48.0 °F - 25.0 °F 41% 30.33 in 10.0 mi Calm Calm - N/A   Clear
4:53 PM 42.1 °F 38.4 °F 28.9 °F 60% 30.32 in 10.0 mi ENE 5.8 mph - N/A   Clear
5:53 PM 37.0 °F 32.4 °F 30.0 °F 76% 30.34 in 10.0 mi NNE 5.8 mph - N/A   Clear
6:53 PM 35.1 °F 29.3 °F 28.9 °F 78% 30.35 in 10.0 mi North 6.9 mph - N/A   Clear
7:53 PM 35.1 °F 31.0 °F 28.0 °F 76% 30.36 in 10.0 mi NNE 4.6 mph - N/A   Clear
8:53 PM 34.0 °F - 28.0 °F 79% 30.36 in 10.0 mi Calm Calm - N/A   Clear
9:53 PM 34.0 °F 28.8 °F 27.0 °F 75% 30.35 in 10.0 mi SE 5.8 mph - N/A   Clear
10:53 PM 30.9 °F - 27.0 °F 85% 30.36 in 10.0 mi Calm Calm - N/A   Clear
11:53 PM 30.0 °F 26.5 °F 27.0 °F 88% 30.36 in 10.0 mi NNE 3.5 mph - N/A   Clear